Weather History for Kelso-Longview, WA

Change the Weather History Date:

Thursday, November 28, 2013

  Actual Average Record
Temperature  
Mean Temperature 40 °F -  
Max Temperature 53 °F 46 °F 55 °F (1999)
Min Temperature 26 °F 36 °F 26 °F (2006)
Degree Days  
Heating Degree Days 26    
Moisture  
Dew Point 29 °F    
Average Humidity 76    
Maximum Humidity 93    
Minimum Humidity 44    
Precipitation  
Precipitation 0.00 in - - ()
Sea Level Pressure  
Sea Level Pressure 30.14 in    
Wind  
Wind Speed 1 mph (SSE)    
Max Wind Speed 9 mph    
Max Gust Speed -    
Visibility 10 miles    
Events      
Averages and records for this station are not official NWS values.
T = Trace of Precipitation, MM = Missing Value Source: NWS Daily Summary

Daily Weather History Graph

Daily Weather History Graph

Search for Another Location

Airport:

Trip Planner

Search our weather history database for the weather conditions in past years. The results will help you decide how hot, cold, wet, or windy it might be!

Date:

Astronomy

Nov. 28, 2013 Rise Set
Actual Time 7:30 AM PST 4:28 PM PST
Civil Twilight 6:56 AM PST 5:02 PM PST
Nautical Twilight 6:19 AM PST 5:39 PM PST
Astronomical Twilight 5:43 AM PST 6:15 PM PST
Moon 2:24 AM PST (11/28) 1:54 PM PST (11/28)
Length of Visible Light 10h 06m
Length of Day
8h 58m
Waning Crescent, 21% of the Moon is Illuminated
Nov 28
Waning Crescent
Dec 2
New
Dec 9
First Quarter
Dec 17
Full
Dec 25
Last Quarter

Hourly Weather History & Observations

Time (PST) Temp. Windchill Dew Point Humidity Pressure Visibility Wind Dir Wind Speed Gust Speed Precip Events Conditions
12:15 AM 32.0 °F - 28.4 °F 87% 30.07 in 8.0 mi Calm Calm - N/A   Clear
12:35 AM 30.2 °F - 28.4 °F 93% 30.07 in 9.0 mi Calm Calm - N/A   Clear
12:55 AM 30.2 °F - 26.6 °F 86% 30.07 in 10.0 mi Calm Calm - N/A   Clear
1:15 AM 30.2 °F - 26.6 °F 86% 30.07 in 10.0 mi Calm Calm - N/A   Clear
1:35 AM 30.2 °F - 26.6 °F 86% 30.07 in 8.0 mi Calm Calm - N/A   Clear
1:55 AM 30.2 °F - 26.6 °F 86% 30.08 in 8.0 mi Calm Calm - N/A   Clear
2:15 AM 28.4 °F - 26.6 °F 93% 30.08 in 10.0 mi Calm Calm - N/A   Clear
2:35 AM 28.4 °F - 26.6 °F 93% 30.09 in 9.0 mi North - - N/A   Clear
2:55 AM 28.4 °F - 26.6 °F 93% 30.08 in 8.0 mi Calm Calm - N/A   Clear
3:15 AM 30.2 °F - 26.6 °F 86% 30.09 in 10.0 mi Calm Calm - N/A   Partly Cloudy
3:35 AM 28.4 °F - 24.8 °F 86% 30.09 in 10.0 mi Calm Calm - N/A   Partly Cloudy
3:55 AM 30.2 °F - 26.6 °F 86% 30.09 in 10.0 mi Calm Calm - N/A   Clear
4:15 AM 28.4 °F - 26.6 °F 93% 30.09 in 9.0 mi North - - N/A   Clear
4:35 AM 28.4 °F - 26.6 °F 93% 30.09 in 10.0 mi Calm Calm - N/A   Clear
4:55 AM 28.4 °F - 24.8 °F 86% 30.09 in 7.0 mi Calm Calm - N/A   Clear
5:15 AM 28.4 °F - 26.6 °F 93% 30.10 in 10.0 mi Calm Calm - N/A   Clear
5:35 AM 26.6 °F - 24.8 °F 93% 30.11 in 9.0 mi Calm Calm - N/A   Clear
5:55 AM 28.4 °F - 24.8 °F 86% 30.11 in 8.0 mi Calm Calm - N/A   Clear
6:15 AM 28.4 °F - 24.8 °F 86% 30.10 in 10.0 mi Calm Calm - N/A   Clear
6:35 AM 28.4 °F - 24.8 °F 86% 30.11 in 10.0 mi North - - N/A   Clear
6:55 AM 26.6 °F - 24.8 °F 93% 30.11 in 9.0 mi North - - N/A   Clear
7:15 AM 28.4 °F - 24.8 °F 86% 30.11 in 10.0 mi Calm Calm - N/A   Clear
7:35 AM 28.4 °F - 24.8 °F 86% 30.12 in 10.0 mi Calm Calm - N/A   Clear
7:55 AM 26.6 °F - 24.8 °F 93% 30.13 in 7.0 mi Calm Calm - N/A   Clear
8:15 AM 28.4 °F - 24.8 °F 86% 30.13 in 10.0 mi Calm Calm - N/A   Clear
8:35 AM 28.4 °F - 26.6 °F 93% 30.14 in 10.0 mi Calm Calm - N/A   Clear
8:55 AM 30.2 °F - 26.6 °F 86% 30.14 in 10.0 mi Calm Calm - N/A   Clear
9:15 AM 32.0 °F - 28.4 °F 87% 30.15 in 10.0 mi Calm Calm - N/A   Clear
9:35 AM 35.6 °F - 30.2 °F 81% 30.15 in 10.0 mi Calm Calm - N/A   Clear
9:55 AM 37.4 °F 33.8 °F 32.0 °F 81% 30.15 in 10.0 mi SE 4.6 mph - N/A   Clear
10:15 AM 39.2 °F 35.9 °F 32.0 °F 75% 30.15 in 10.0 mi SE 4.6 mph - N/A   Clear
10:35 AM 41.0 °F 38.0 °F 32.0 °F 70% 30.15 in 10.0 mi SE 4.6 mph - N/A   Clear
10:55 AM 42.8 °F 39.3 °F 32.0 °F 66% 30.14 in 10.0 mi SSE 5.8 mph - N/A   Clear
11:15 AM 44.6 °F 41.4 °F 32.0 °F 61% 30.14 in 10.0 mi SSE 5.8 mph - N/A   Clear
11:35 AM 46.4 °F 42.9 °F 30.2 °F 53% 30.15 in 10.0 mi SSE 6.9 mph - N/A   Clear
11:55 AM 46.4 °F 42.9 °F 30.2 °F 53% 30.14 in 10.0 mi SSE 6.9 mph - N/A   Clear
12:15 PM 48.2 °F - 32.0 °F 54% 30.14 in 10.0 mi SSE 3.5 mph - N/A   Clear
12:35 PM 50.0 °F - 32.0 °F 50% 30.13 in 10.0 mi SSE 5.8 mph - N/A   Clear
12:55 PM 50.0 °F - 30.2 °F 47% 30.12 in 10.0 mi SE 9.2 mph - N/A   Clear
1:15 PM 51.8 °F - 30.2 °F 44% 30.12 in 10.0 mi SSE 6.9 mph - N/A   Clear
1:35 PM 51.8 °F - 30.2 °F 44% 30.12 in 10.0 mi SSE 6.9 mph - N/A   Clear
1:55 PM 51.8 °F - 32.0 °F 47% 30.12 in 10.0 mi SSE 5.8 mph - N/A   Clear
2:15 PM 51.8 °F - 32.0 °F 47% 30.13 in 10.0 mi SSE 5.8 mph - N/A   Clear
2:35 PM 53.6 °F - 32.0 °F 44% 30.13 in 10.0 mi SSE 5.8 mph - N/A   Clear
2:55 PM 51.8 °F - 32.0 °F 47% 30.12 in 10.0 mi SSE 5.8 mph - N/A   Clear
3:15 PM 51.8 °F - 32.0 °F 47% 30.13 in 10.0 mi SSE 5.8 mph - N/A   Clear
3:35 PM 51.8 °F - 32.0 °F 47% 30.14 in 10.0 mi SSE 3.5 mph - N/A   Clear
3:55 PM 51.8 °F - 32.0 °F 47% 30.14 in 10.0 mi South 4.6 mph - N/A   Clear
4:15 PM 48.2 °F - 33.8 °F 58% 30.14 in 10.0 mi Calm Calm - N/A   Clear
4:35 PM 46.4 °F 45.2 °F 32.0 °F 57% 30.14 in 10.0 mi SE 3.5 mph - N/A   Clear
4:55 PM 42.8 °F - 32.0 °F 66% 30.15 in 10.0 mi Calm Calm - N/A   Clear
5:15 PM 42.8 °F - 32.0 °F 66% 30.15 in 10.0 mi Calm Calm - N/A   Clear
5:35 PM 39.2 °F - 30.2 °F 70% 30.16 in 10.0 mi Calm Calm - N/A   Clear
5:55 PM 39.2 °F - 30.2 °F 70% 30.17 in 10.0 mi Calm Calm - N/A   Clear
6:15 PM 37.4 °F - 30.2 °F 75% 30.17 in 10.0 mi Calm Calm - N/A   Clear
6:35 PM 37.4 °F - 30.2 °F 75% 30.17 in 10.0 mi Calm Calm - N/A   Clear
6:55 PM 35.6 °F - 30.2 °F 81% 30.17 in 10.0 mi Calm Calm - N/A   Clear
7:15 PM 33.8 °F - 28.4 °F 81% 30.18 in 10.0 mi Calm Calm - N/A   Clear
7:35 PM 33.8 °F - 26.6 °F 75% 30.19 in 10.0 mi Calm Calm - N/A   Clear
7:55 PM 33.8 °F - 28.4 °F 81% 30.19 in 10.0 mi Calm Calm - N/A   Clear
8:15 PM 33.8 °F - 28.4 °F 81% 30.19 in 10.0 mi Calm Calm - N/A   Clear
8:35 PM 33.8 °F - 28.4 °F 81% 30.19 in 10.0 mi Calm Calm - N/A   Clear
8:55 PM 33.8 °F - 28.4 °F 81% 30.19 in 10.0 mi Calm Calm - N/A   Clear
9:15 PM 33.8 °F - 28.4 °F 81% 30.19 in 10.0 mi Calm Calm - N/A   Clear
9:35 PM 32.0 °F 28.7 °F 28.4 °F 87% 30.19 in 10.0 mi ESE 3.5 mph - N/A   Clear
9:55 PM 30.2 °F - 26.6 °F 86% 30.21 in 10.0 mi Calm Calm - N/A   Clear
10:15 PM 32.0 °F - 28.4 °F 87% 30.21 in 10.0 mi North - - N/A   Clear
10:35 PM 32.0 °F 28.7 °F 28.4 °F 87% 30.21 in 10.0 mi SE 3.5 mph - N/A   Clear
10:55 PM 32.0 °F - 28.4 °F 87% 30.22 in 10.0 mi Calm Calm - N/A   Clear
11:15 PM 30.2 °F 26.7 °F 26.6 °F 86% 30.24 in 10.0 mi NNW 3.5 mph - N/A   Clear
11:35 PM 32.0 °F - 28.4 °F 87% 30.24 in 10.0 mi Calm Calm - N/A   Clear
11:55 PM 32.0 °F - 28.4 °F 87% 30.24 in 9.0 mi Calm Calm - N/A   Clear